Back to Top

Language: 

My Weather Underground Personal Weather Station Historical Data with Graphs...

Delerius Weather Station Historical Data
Daily Summary for January 12, 2017 Units:  Metric    English   Both
« Previous Day
Next Day »
Daily Weekly Monthly Yearly Custom
  High: Low: Average:
Temperature: 5.2 °C 0.8 °C 3 °C
Dew Point: 2.7 °C -1.1 °C 1.1 °C
Humidity: 94 % 76 % 88 %
Wind Speed: 35.4 km/h 0 km/h 15.6 km/h
Wind Gust: 56.3 km/h - -
Wind:- - West
Pressure: 1007.3 hPa 995.5 hPa -
Precipitation: 0.76 mm    
Historical Graphs
 
 
Tabular Data for January 12, 2017
Time Temperature Dew Point Pressure Wind Wind Speed Wind Gust Humidity Rainfall Rate (Hourly) solar Conditions
00:05 5.2 °C 1.3 °C 1007 hPa WNW 32.2 km/h 48.3 km/h 76 % 0 mm 0 W/m2
00:15 5.2 °C 1.3 °C 1007 hPa WNW 30.6 km/h 32.2 km/h 76 % 0 mm 0 W/m2
00:25 5.1 °C 1.2 °C 1007.3 hPa WNW 33.8 km/h 43.5 km/h 76 % 0 mm 0 W/m2
00:30 5 °C 1.3 °C 1007 hPa West 32.2 km/h 32.2 km/h 77 % 0 mm 0 W/m2
00:35 4.9 °C 1.2 °C 1007 hPa West 32.2 km/h 32.2 km/h 77 % 0 mm 0 W/m2
00:40 4.8 °C 1.3 °C 1007 hPa WNW 32.2 km/h 32.2 km/h 78 % 0 mm 0 W/m2
00:45 4.8 °C 1.5 °C 1007 hPa West 33.8 km/h 37 km/h 79 % 0 mm 0 W/m2
00:50 4.8 °C 1.3 °C 1007 hPa WNW 35.4 km/h 40.2 km/h 78 % 0 mm 0 W/m2
00:55 4.9 °C 1.4 °C 1007 hPa West 35.4 km/h 46.7 km/h 78 % 0 mm 0 W/m2
01:05 4.9 °C 1.6 °C 1006.7 hPa NW 33.8 km/h 38.6 km/h 79 % 0 mm 0 W/m2
01:15 4.8 °C 1.4 °C 1006.7 hPa WSW 29 km/h 56.3 km/h 79 % 0 mm 0 W/m2
01:20 4.8 °C 1.5 °C 1006.3 hPa West 33.8 km/h 56.3 km/h 79 % 0 mm 0 W/m2
01:25 4.8 °C 1.4 °C 1006.3 hPa WSW 32.2 km/h 56.3 km/h 79 % 0 mm 0 W/m2
01:30 4.8 °C 1.5 °C 1006.3 hPa West 32.2 km/h 56.3 km/h 79 % 0 mm 0 W/m2
01:35 4.9 °C 1.6 °C 1006.3 hPa West 35.4 km/h 56.3 km/h 79 % 0 mm 0 W/m2
01:40 4.8 °C 1.5 °C 1006.3 hPa West 33.8 km/h 33.8 km/h 79 % 0 mm 0 W/m2
01:45 4.8 °C 1.6 °C 1006.3 hPa WNW 30.6 km/h 56.3 km/h 80 % 0 mm 0 W/m2
01:55 4.8 °C 1.4 °C 1006.3 hPa West 30.6 km/h 30.6 km/h 79 % 0 mm 0 W/m2
02:00 4.8 °C 1.3 °C 1006 hPa WSW 30.6 km/h 56.3 km/h 78 % 0 mm 0 W/m2
02:05 4.8 °C 1.5 °C 1006.3 hPa West 29 km/h 56.3 km/h 79 % 0 mm 0 W/m2
02:10 4.9 °C 1.7 °C 1006 hPa WSW 32.2 km/h 32.2 km/h 80 % 0 mm 0 W/m2
02:15 4.9 °C 1.9 °C 1006 hPa West 35.4 km/h 43.5 km/h 81 % 0 mm 0 W/m2
02:25 4.8 °C 1.8 °C 1006 hPa WNW 30.6 km/h 37 km/h 81 % 0 mm 0 W/m2
02:30 4.8 °C 1.8 °C 1006 hPa West 30.6 km/h 56.3 km/h 81 % 0 mm 0 W/m2
02:35 4.8 °C 1.8 °C 1006 hPa West 29 km/h 56.3 km/h 81 % 0 mm 0 W/m2
02:40 4.8 °C 1.8 °C 1006 hPa West 30.6 km/h 56.3 km/h 81 % 0 mm 0 W/m2
02:45 4.8 °C 1.8 °C 1006 hPa WNW 29 km/h 56.3 km/h 81 % 0 mm 0 W/m2
02:50 4.8 °C 2 °C 1006 hPa NW 29 km/h 29 km/h 82 % 0 mm 0 W/m2
03:00 4.6 °C 1.6 °C 1006 hPa West 30.6 km/h 56.3 km/h 81 % 0 mm 0 W/m2
03:05 4.6 °C 1.6 °C 1006 hPa WNW 30.6 km/h 56.3 km/h 81 % 0 mm 0 W/m2
03:10 4.6 °C 1.4 °C 1006 hPa WSW 30.6 km/h 30.6 km/h 80 % 0 mm 0 W/m2
03:15 4.5 °C 1.3 °C 1005.6 hPa WNW 29 km/h 38.6 km/h 80 % 0 mm 0 W/m2
03:20 4.4 °C 1.4 °C 1006 hPa West 27.4 km/h 56.3 km/h 81 % 0 mm 0 W/m2
03:25 4.3 °C 1.3 °C 1006 hPa WNW 30.6 km/h 56.3 km/h 81 % 0 mm 0 W/m2
03:30 4.1 °C 1.3 °C 1005.6 hPa West 30.6 km/h 56.3 km/h 82 % 0 mm 0 W/m2
03:40 3.7 °C 1.4 °C 1005.6 hPa WNW 32.2 km/h 32.2 km/h 85 % 0 mm 0 W/m2
03:45 3.6 °C 1.4 °C 1006 hPa WNW 32.2 km/h 56.3 km/h 86 % 0 mm 0 W/m2
03:50 3.5 °C 1.6 °C 1006 hPa WNW 30.6 km/h 56.3 km/h 87 % 0 mm 0 W/m2
03:55 3.5 °C 1.6 °C 1006 hPa West 29 km/h 56.3 km/h 87 % 0 mm 0 W/m2
04:00 3.5 °C 1.7 °C 1006 hPa WNW 27.4 km/h 27.4 km/h 88 % 0 mm 0 W/m2
04:05 3.5 °C 1.7 °C 1006.3 hPa West 24.1 km/h 56.3 km/h 88 % 0 mm 0 W/m2
04:10 3.6 °C 1.8 °C 1006.3 hPa West 24.1 km/h 56.3 km/h 88 % 0 mm 0 W/m2
04:15 3.6 °C 1.8 °C 1006 hPa West 25.7 km/h 56.3 km/h 88 % 0 mm 0 W/m2
04:25 3.5 °C 1.8 °C 1005.6 hPa West 25.7 km/h 40.2 km/h 89 % 0 mm 0 W/m2
04:35 3.4 °C 1.8 °C 1005.6 hPa West 22.5 km/h 56.3 km/h 89 % 0 mm 0 W/m2
04:40 3.5 °C 1.7 °C 1005.6 hPa West 20.9 km/h 20.9 km/h 88 % 0 mm 0 W/m2
04:45 3.5 °C 1.7 °C 1005.6 hPa WNW 19.3 km/h 56.3 km/h 88 % 0 mm 0 W/m2
04:50 3.6 °C 1.8 °C 1006 hPa WSW 20.9 km/h 56.3 km/h 88 % 0 mm 0 W/m2
04:55 3.6 °C 1.6 °C 1005.6 hPa WNW 20.9 km/h 56.3 km/h 87 % 0 mm 0 W/m2
05:05 3.6 °C 1.7 °C 1006 hPa NNW 19.3 km/h 22.5 km/h 87 % 0 mm 0 W/m2
05:15 3.7 °C 1.7 °C 1006 hPa WNW 20.9 km/h 56.3 km/h 87 % 0 mm 0 W/m2
05:20 3.7 °C 1.7 °C 1005.6 hPa West 22.5 km/h 56.3 km/h 87 % 0 mm 0 W/m2
05:25 3.6 °C 1.6 °C 1005.6 hPa West 22.5 km/h 56.3 km/h 87 % 0 mm 0 W/m2
05:30 3.4 °C 1.5 °C 1005.6 hPa West 19.3 km/h 19.3 km/h 87 % 0 mm 0 W/m2
05:35 3.4 °C 1.4 °C 1006 hPa WSW 14.5 km/h 56.3 km/h 87 % 0 mm 0 W/m2
05:40 3.4 °C 1.6 °C 1005.6 hPa West 16.1 km/h 16.1 km/h 88 % 0 mm 0 W/m2
05:50 3.4 °C 1.7 °C 1006 hPa West 14.5 km/h 56.3 km/h 89 % 0 mm 0 W/m2
05:55 3.4 °C 1.7 °C 1006 hPa SW 12.9 km/h 56.3 km/h 89 % 0 mm 0 W/m2
06:00 3.4 °C 1.7 °C 1006 hPa WSW 11.3 km/h 11.3 km/h 89 % 0 mm 0 W/m2
06:05 3.4 °C 1.7 °C 1006 hPa WSW 9.7 km/h 56.3 km/h 89 % 0 mm 0 W/m2
06:10 3.4 °C 1.7 °C 1006 hPa WNW 9.7 km/h 9.7 km/h 89 % 0 mm 0 W/m2
06:15 3.4 °C 1.7 °C 1006 hPa WNW 11.3 km/h 11.3 km/h 89 % 0 mm 0 W/m2
06:20 3.4 °C 1.7 °C 1006 hPa SW 9.7 km/h 9.7 km/h 89 % 0 mm 0 W/m2
06:30 3.4 °C 1.7 °C 1006 hPa Calm   56.3 km/h 89 % 0 mm 0 W/m2
06:35 3.4 °C 1.7 °C 1005.6 hPa Calm   56.3 km/h 89 % 0 mm 0 W/m2
06:40 3.4 °C 1.7 °C 1005.6 hPa NE 1.6 km/h 56.3 km/h 89 % 0 mm 0 W/m2
06:45 3.4 °C 1.8 °C 1005.6 hPa SE 4.8 km/h 56.3 km/h 89 % 0 mm 0 W/m2
06:50 3.5 °C 1.8 °C 1005.6 hPa SSW 4.8 km/h 4.8 km/h 89 % 0 mm 0 W/m2
06:55 3.5 °C 1.8 °C 1005.6 hPa SSE 6.4 km/h 12.9 km/h 89 % 0 mm 0 W/m2
07:00 3.4 °C 1.7 °C 1005.6 hPa ESE 8 km/h 56.3 km/h 89 % 1.78 mm 0 W/m2
07:10 3.4 °C 1.9 °C 1005.3 hPa SW 12.9 km/h 56.3 km/h 90 % 1.02 mm 0 W/m2
07:15 3.7 °C 2.1 °C 1005.3 hPa SW 12.9 km/h 56.3 km/h 89 % 0 mm 0 W/m2
07:20 3.9 °C 2.1 °C 1005.3 hPa SSW 12.9 km/h 56.3 km/h 88 % 0 mm 0 W/m2
07:25 4.1 °C 2.1 °C 1005.3 hPa SSW 16.1 km/h 56.3 km/h 87 % 0 mm 0 W/m2
07:30 4.1 °C 2.2 °C 1005.3 hPa South 12.9 km/h 56.3 km/h 88 % 0 mm 0 W/m2
07:35 4 °C 2.2 °C 1005.3 hPa SSW 12.9 km/h 56.3 km/h 88 % 0 mm 0 W/m2
07:45 4 °C 2.1 °C 1005.3 hPa WSW 12.9 km/h 56.3 km/h 87 % 0 mm 0 W/m2
07:50 4 °C 2.2 °C 1005.3 hPa SSW 9.7 km/h 56.3 km/h 88 % 0 mm 0 W/m2
07:55 3.9 °C 2 °C 1005 hPa SW 12.9 km/h 56.3 km/h 87 % 0 mm 0 W/m2
08:00 3.9 °C 1.9 °C 1005 hPa SW 12.9 km/h 56.3 km/h 87 % 0 mm 0 W/m2
08:05 3.9 °C 1.9 °C 1005 hPa SSW 11.3 km/h 56.3 km/h 87 % 0 mm 0 W/m2
08:10 3.8 °C 1.9 °C 1005 hPa SW 9.7 km/h 56.3 km/h 87 % 0 mm 0 W/m2
08:20 3.8 °C 1.8 °C 1005 hPa SW 8 km/h 56.3 km/h 87 % 0 mm 0 W/m2
08:25 3.7 °C 1.8 °C 1005 hPa WSW 9.7 km/h 56.3 km/h 87 % 0 mm 0 W/m2
08:30 3.7 °C 1.9 °C 1005 hPa SW 11.3 km/h 11.3 km/h 88 % 0 mm 5 W/m2
08:35 3.7 °C 1.9 °C 1005 hPa West 12.9 km/h 12.9 km/h 88 % 0 mm 0 W/m2
08:40 3.7 °C 1.9 °C 1005 hPa WSW 11.3 km/h 56.3 km/h 88 % 0 mm 9 W/m2
08:45 3.6 °C 1.8 °C 1005 hPa West 11.3 km/h 56.3 km/h 88 % 0 mm 11 W/m2
08:55 3.4 °C 1.8 °C 1004.6 hPa SW 11.3 km/h 56.3 km/h 89 % 0 mm 28 W/m2
09:00 3.3 °C 1.7 °C 1004.3 hPa WSW 11.3 km/h 56.3 km/h 89 % 0 mm 26 W/m2
09:05 3.3 °C 1.6 °C 1004.3 hPa West 11.3 km/h 56.3 km/h 89 % 0 mm 23 W/m2
09:15 3.1 °C 1.6 °C 1003.9 hPa WSW 12.9 km/h 56.3 km/h 90 % 0 mm 26 W/m2
09:20 3.1 °C 1.6 °C 1003.9 hPa WNW 12.9 km/h 12.9 km/h 90 % 0 mm 44 W/m2
09:25 3.1 °C 1.6 °C 1003.9 hPa NW 12.9 km/h 56.3 km/h 90 % 0 mm 49 W/m2
09:35 3.2 °C 1.7 °C 1003.6 hPa West 14.5 km/h 56.3 km/h 90 % 0 mm 74 W/m2
09:40 3.2 °C 1.9 °C 1003.6 hPa WSW 12.9 km/h 12.9 km/h 91 % 0 mm 76 W/m2
09:50 3.2 °C 1.8 °C 1003.3 hPa West 9.7 km/h 56.3 km/h 91 % 0 mm 70 W/m2
09:55 3.2 °C 1.8 °C 1003.3 hPa WSW 9.7 km/h 56.3 km/h 91 % 0 mm 72 W/m2
10:00 3.2 °C 1.8 °C 1003.3 hPa West 9.7 km/h 56.3 km/h 91 % 0 mm 76 W/m2
10:05 3.3 °C 1.9 °C 1003.3 hPa WSW 14.5 km/h 56.3 km/h 91 % 0 mm 67 W/m2
10:10 3.4 °C 1.9 °C 1003.3 hPa West 16.1 km/h 16.1 km/h 90 % 0 mm 79 W/m2
10:15 3.6 °C 2.1 °C 1002.9 hPa WSW 14.5 km/h 56.3 km/h 90 % 0 mm 88 W/m2
10:20 3.6 °C 2.1 °C 1002.9 hPa WNW 12.9 km/h 56.3 km/h 90 % 0 mm 93 W/m2
10:25 3.7 °C 2.2 °C 1002.9 hPa WSW 14.5 km/h 56.3 km/h 90 % 0 mm 65 W/m2
10:35 3.8 °C 2.3 °C 1002.9 hPa WSW 11.3 km/h 20.9 km/h 90 % 0 mm 56 W/m2
10:40 3.8 °C 2.3 °C 1002.9 hPa WSW 14.5 km/h 14.5 km/h 90 % 0 mm 60 W/m2
10:45 3.8 °C 2.3 °C 1002.9 hPa West 16.1 km/h 16.1 km/h 90 % 0 mm 81 W/m2
10:50 3.9 °C 2.4 °C 1002.9 hPa West 14.5 km/h 14.5 km/h 90 % 0 mm 98 W/m2
10:55 4 °C 2.5 °C 1002.6 hPa WSW 11.3 km/h 56.3 km/h 90 % 0 mm 97 W/m2
11:00 4.1 °C 2.4 °C 1002.6 hPa WSW 11.3 km/h 56.3 km/h 89 % 0 mm 76 W/m2
11:10 4.2 °C 2.7 °C 1002.3 hPa WSW 11.3 km/h 56.3 km/h 90 % 0 mm 98 W/m2
11:15 4.2 °C 2.7 °C 1001.9 hPa West 9.7 km/h 56.3 km/h 90 % 0 mm 97 W/m2
11:20 4.2 °C 2.7 °C 1001.9 hPa SW 11.3 km/h 56.3 km/h 90 % 0 mm 69 W/m2
11:25 4.2 °C 2.5 °C 1001.9 hPa West 12.9 km/h 56.3 km/h 89 % 0 mm 37 W/m2
11:30 4.1 °C 2.6 °C 1001.6 hPa WSW 11.3 km/h 11.3 km/h 90 % 0 mm 72 W/m2
11:35 4.1 °C 2.6 °C 1001.6 hPa WSW 9.7 km/h 56.3 km/h 90 % 0 mm 76 W/m2
11:40 4.1 °C 2.6 °C 1001.6 hPa WSW 11.3 km/h 56.3 km/h 90 % 0 mm 72 W/m2
11:50 4.1 °C 2.4 °C 1001.6 hPa SW 11.3 km/h 56.3 km/h 89 % 0 mm 62 W/m2
11:55 4.1 °C 2.4 °C 1001.2 hPa WSW 12.9 km/h 56.3 km/h 89 % 0 mm 63 W/m2
12:00 4.1 °C 2.4 °C 1001.2 hPa WSW 12.9 km/h 56.3 km/h 89 % 0 mm 63 W/m2
12:05 4.1 °C 2.3 °C 1001.2 hPa WSW 12.9 km/h 56.3 km/h 88 % 0 mm 51 W/m2
12:10 4.1 °C 2.3 °C 1000.9 hPa West 14.5 km/h 14.5 km/h 88 % 0 mm 60 W/m2
12:15 4.1 °C 2.3 °C 1000.9 hPa WSW 16.1 km/h 16.1 km/h 88 % 0 mm 62 W/m2
12:25 4.1 °C 2.2 °C 1000.6 hPa West 14.5 km/h 56.3 km/h 87 % 0 mm 63 W/m2
12:30 4.1 °C 2.2 °C 1000.6 hPa WSW 11.3 km/h 11.3 km/h 88 % 0 mm 51 W/m2
12:35 4.1 °C 2.2 °C 1000.6 hPa WNW 11.3 km/h 56.3 km/h 88 % 0 mm 30 W/m2
12:40 4.1 °C 2.2 °C 1000.2 hPa West 12.9 km/h 56.3 km/h 88 % 0 mm 25 W/m2
12:45 3.9 °C 2.2 °C 1000.2 hPa NW 12.9 km/h 56.3 km/h 89 % 0 mm 28 W/m2
12:50 3.7 °C 2.1 °C 1000.2 hPa WNW 12.9 km/h 56.3 km/h 89 % 0 mm 32 W/m2
12:55 3.6 °C 2.1 °C 1000.2 hPa NW 12.9 km/h 56.3 km/h 90 % 0 mm 18 W/m2
13:05 3 °C 1.5 °C 999.9 hPa WNW 11.3 km/h 56.3 km/h 90 % 0 mm 39 W/m2
13:10 2.9 °C 1.6 °C 999.5 hPa WNW 8 km/h 8 km/h 91 % 0 mm 39 W/m2
13:15 2.8 °C 1.7 °C 999.5 hPa WSW 4.8 km/h 56.3 km/h 92 % 0 mm 53 W/m2
13:20 2.8 °C 1.7 °C 999.2 hPa WSW 3.2 km/h 3.2 km/h 92 % 0 mm 51 W/m2
13:25 2.7 °C 1.6 °C 999.2 hPa WSW 3.2 km/h 56.3 km/h 92 % 0 mm 47 W/m2
13:30 2.7 °C 1.6 °C 999.2 hPa WSW 3.2 km/h 56.3 km/h 92 % 0 mm 44 W/m2
13:40 2.6 °C 1.6 °C 998.9 hPa WSW 3.2 km/h 3.2 km/h 93 % 0 mm 42 W/m2
13:45 2.6 °C 1.6 °C 998.9 hPa WSW 1.6 km/h 56.3 km/h 93 % 0 mm 46 W/m2
13:50 2.5 °C 1.5 °C 998.5 hPa Calm   56.3 km/h 93 % 0 mm 51 W/m2
13:55 2.5 °C 1.5 °C 998.5 hPa Calm   56.3 km/h 93 % 0 mm 49 W/m2
14:00 2.5 °C 1.5 °C 998.2 hPa Calm   56.3 km/h 93 % 0 mm 51 W/m2
14:05 2.5 °C 1.5 °C 998.2 hPa Calm   56.3 km/h 93 % 0 mm 53 W/m2
14:10 2.6 °C 1.7 °C 998.2 hPa Calm   56.3 km/h 94 % 0 mm 49 W/m2
14:20 2.7 °C 1.8 °C 998.2 hPa West 6.4 km/h 56.3 km/h 94 % 0 mm 44 W/m2
14:25 2.8 °C 1.9 °C 997.9 hPa West 8 km/h 56.3 km/h 94 % 0 mm 39 W/m2
14:30 2.8 °C 1.8 °C 997.9 hPa WSW 6.4 km/h 56.3 km/h 93 % 0 mm 33 W/m2
14:35 2.9 °C 1.9 °C 997.9 hPa West 8 km/h 56.3 km/h 93 % 0 mm 33 W/m2
14:40 2.9 °C 1.9 °C 997.9 hPa West 6.4 km/h 56.3 km/h 93 % 0 mm 30 W/m2
14:45 2.9 °C 1.9 °C 997.5 hPa West 8 km/h 56.3 km/h 93 % 0 mm 26 W/m2
14:50 2.9 °C 1.9 °C 997.5 hPa West 8 km/h 56.3 km/h 93 % 0 mm 28 W/m2
15:00 2.9 °C 1.8 °C 997.5 hPa WNW 8 km/h 8 km/h 92 % 0 mm 25 W/m2
15:05 2.9 °C 1.8 °C 997.2 hPa WNW 6.4 km/h 56.3 km/h 92 % 0 mm 23 W/m2
15:10 3 °C 1.8 °C 997.2 hPa West 4.8 km/h 56.3 km/h 92 % 0 mm 23 W/m2
15:15 2.9 °C 1.8 °C 996.8 hPa West 6.4 km/h 56.3 km/h 92 % 0 mm 23 W/m2
15:20 2.9 °C 1.8 °C 996.8 hPa WNW 6.4 km/h 6.4 km/h 92 % 0 mm 19 W/m2
15:30 2.9 °C 1.6 °C 996.8 hPa WNW 4.8 km/h 4.8 km/h 91 % 0 mm 14 W/m2
15:35 2.8 °C 1.5 °C 996.8 hPa WNW 4.8 km/h 56.3 km/h 91 % 0 mm 12 W/m2
15:40 2.8 °C 1.5 °C 996.8 hPa NNW 4.8 km/h 56.3 km/h 91 % 0 mm 9 W/m2
15:45 2.8 °C 1.5 °C 996.8 hPa NW 4.8 km/h 56.3 km/h 91 % 0 mm 7 W/m2
15:50 2.8 °C 1.4 °C 996.8 hPa NNW 4.8 km/h 4.8 km/h 91 % 0 mm 7 W/m2
16:00 2.7 °C 1.4 °C 996.5 hPa WNW 8 km/h 56.3 km/h 91 % 0 mm 5 W/m2
16:05 2.7 °C 1.4 °C 996.5 hPa NNW 9.7 km/h 56.3 km/h 91 % 0 mm 0 W/m2
16:10 2.7 °C 1.2 °C 996.5 hPa WNW 11.3 km/h 56.3 km/h 90 % 0 mm 0 W/m2
16:15 2.7 °C 1.2 °C 996.5 hPa WNW 9.7 km/h 56.3 km/h 90 % 0 mm 0 W/m2
16:20 2.7 °C 1.2 °C 996.2 hPa WNW 8 km/h 56.3 km/h 90 % 0 mm 0 W/m2
16:25 2.7 °C 1.2 °C 996.2 hPa NW 11.3 km/h 56.3 km/h 90 % 0 mm 0 W/m2
16:30 2.7 °C 1.2 °C 996.5 hPa NW 12.9 km/h 12.9 km/h 90 % 0 mm 0 W/m2
16:40 2.7 °C 1.2 °C 996.2 hPa WNW 11.3 km/h 56.3 km/h 90 % 0 mm 0 W/m2
16:45 2.7 °C 1.2 °C 996.2 hPa WNW 12.9 km/h 56.3 km/h 90 % 0 mm 0 W/m2
16:50 2.6 °C 1 °C 995.8 hPa NW 12.9 km/h 12.9 km/h 89 % 0 mm 0 W/m2
16:55 2.5 °C 0.9 °C 995.8 hPa NW 12.9 km/h 56.3 km/h 89 % 0 mm 0 W/m2
17:00 2.4 °C 0.8 °C 996.2 hPa WNW 12.9 km/h 56.3 km/h 89 % 0 mm 0 W/m2
17:05 2.3 °C 0.7 °C 995.8 hPa WNW 14.5 km/h 56.3 km/h 89 % 0 mm 0 W/m2
17:10 2.3 °C 0.7 °C 996.2 hPa WNW 12.9 km/h 56.3 km/h 89 % 0 mm 0 W/m2
17:15 2.3 °C 0.7 °C 995.8 hPa NW 11.3 km/h 56.3 km/h 89 % 0 mm 0 W/m2
17:25 2.3 °C 0.5 °C 995.8 hPa NW 12.9 km/h 17.7 km/h 88 % 0 mm 0 W/m2
17:30 2.3 °C 0.5 °C 995.8 hPa NW 11.3 km/h 56.3 km/h 88 % 0 mm 0 W/m2
17:35 2.2 °C 0.4 °C 995.8 hPa NW 9.7 km/h 56.3 km/h 88 % 0 mm 0 W/m2
17:40 2.2 °C 0.6 °C 995.8 hPa NW 9.7 km/h 56.3 km/h 89 % 0 mm 0 W/m2
17:45 2.2 °C 0.6 °C 995.5 hPa NW 12.9 km/h 56.3 km/h 89 % 0 mm 0 W/m2
17:50 2.2 °C 0.6 °C 995.5 hPa NW 12.9 km/h 56.3 km/h 89 % 0 mm 0 W/m2
17:55 2.2 °C 0.4 °C 995.5 hPa WNW 14.5 km/h 56.3 km/h 88 % 0 mm 0 W/m2
18:05 2.2 °C 0.4 °C 995.5 hPa WNW 14.5 km/h 17.7 km/h 88 % 0 mm 0 W/m2
18:10 2.2 °C 0.4 °C 995.5 hPa WNW 17.7 km/h 56.3 km/h 88 % 0 mm 0 W/m2
18:15 2.1 °C 0.3 °C 995.5 hPa WNW 17.7 km/h 56.3 km/h 88 % 0 mm 0 W/m2
18:20 2.1 °C 0.2 °C 995.5 hPa WNW 17.7 km/h 17.7 km/h 87 % 0 mm 0 W/m2
18:25 2.1 °C 0.2 °C 995.5 hPa WNW 16.1 km/h 56.3 km/h 87 % 0 mm 0 W/m2
18:30 2.1 °C 0.1 °C 995.5 hPa West 14.5 km/h 56.3 km/h 87 % 0 mm 0 W/m2
18:35 2 °C -0.1 °C 995.8 hPa WNW 16.1 km/h 56.3 km/h 86 % 0 mm 0 W/m2
18:45 1.8 °C -0.4 °C 995.5 hPa NW 16.1 km/h 56.3 km/h 85 % 0 mm 0 W/m2
18:50 1.7 °C -0.6 °C 995.8 hPa NNW 12.9 km/h 12.9 km/h 85 % 0 mm 0 W/m2
18:55 1.6 °C -0.7 °C 995.8 hPa NNW 12.9 km/h 16.1 km/h 85 % 0 mm 0 W/m2
19:00 1.6 °C -0.7 °C 995.5 hPa NW 14.5 km/h 56.3 km/h 85 % 0 mm 0 W/m2
19:05 1.6 °C -0.7 °C 995.5 hPa NNW 14.5 km/h 56.3 km/h 85 % 0 mm 0 W/m2
19:10 1.5 °C -0.6 °C 995.5 hPa WNW 14.5 km/h 14.5 km/h 86 % 0 mm 0 W/m2
19:20 1.4 °C -0.7 °C 995.5 hPa WNW 12.9 km/h 56.3 km/h 86 % 0 mm 0 W/m2
19:25 1.4 °C -0.7 °C 995.5 hPa WNW 12.9 km/h 56.3 km/h 86 % 0 mm 0 W/m2
19:30 1.3 °C -0.8 °C 995.8 hPa WNW 14.5 km/h 56.3 km/h 86 % 0 mm 0 W/m2
19:35 1.3 °C -0.8 °C 995.8 hPa NW 14.5 km/h 56.3 km/h 86 % 0 mm 0 W/m2
19:40 1.3 °C -0.8 °C 995.5 hPa NW 16.1 km/h 16.1 km/h 86 % 0 mm 0 W/m2
19:45 1.3 °C -0.8 °C 995.5 hPa WNW 14.5 km/h 56.3 km/h 86 % 0 mm 0 W/m2
19:50 1.2 °C -0.9 °C 995.5 hPa NW 12.9 km/h 56.3 km/h 86 % 0 mm 0 W/m2
20:00 1.1 °C -0.8 °C 995.5 hPa WNW 14.5 km/h 56.3 km/h 87 % 0 mm 0 W/m2
20:05 1.1 °C -0.8 °C 995.8 hPa NW 16.1 km/h 56.3 km/h 87 % 0 mm 0 W/m2
20:10 1.1 °C -0.9 °C 995.5 hPa WNW 19.3 km/h 56.3 km/h 86 % 0 mm 0 W/m2
20:15 1.2 °C -0.9 °C 995.8 hPa WNW 20.9 km/h 56.3 km/h 86 % 0 mm 0 W/m2
20:20 1.2 °C -0.9 °C 995.8 hPa WNW 17.7 km/h 17.7 km/h 86 % 0 mm 0 W/m2
20:25 1.1 °C -0.8 °C 995.8 hPa West 16.1 km/h 56.3 km/h 87 % 0 mm 0 W/m2
20:35 1.1 °C -0.9 °C 995.8 hPa WNW 16.1 km/h 20.9 km/h 87 % 0 mm 0 W/m2
20:40 1.1 °C -0.7 °C 995.8 hPa NW 17.7 km/h 17.7 km/h 88 % 0 mm 0 W/m2
20:45 1 °C -0.8 °C 995.8 hPa WNW 16.1 km/h 56.3 km/h 88 % 0 mm 0 W/m2
20:50 0.9 °C -0.9 °C 995.8 hPa WNW 14.5 km/h 56.3 km/h 88 % 0 mm 0 W/m2
20:55 0.9 °C -0.7 °C 995.8 hPa West 14.5 km/h 56.3 km/h 89 % 0 mm 0 W/m2
21:00 0.8 °C -0.8 °C 995.8 hPa WNW 14.5 km/h 56.3 km/h 89 % 0 mm 0 W/m2
21:10 0.9 °C -0.7 °C 995.8 hPa WNW 16.1 km/h 16.1 km/h 89 % 0 mm 0 W/m2
21:15 0.9 °C -0.7 °C 996.2 hPa NW 16.1 km/h 19.3 km/h 89 % 0 mm 0 W/m2
21:20 0.9 °C -0.7 °C 996.2 hPa West 14.5 km/h 14.5 km/h 89 % 0 mm 0 W/m2
21:25 0.9 °C -0.7 °C 996.2 hPa WNW 16.1 km/h 22.5 km/h 89 % 0 mm 0 W/m2
21:30 1 °C -0.8 °C 996.2 hPa WNW 16.1 km/h 56.3 km/h 88 % 0 mm 0 W/m2
21:35 1 °C -0.6 °C 996.2 hPa WNW 16.1 km/h 56.3 km/h 89 % 0 mm 0 W/m2
21:45 1.1 °C -0.6 °C 996.5 hPa NW 16.1 km/h 56.3 km/h 89 % 0 mm 0 W/m2
21:50 1.1 °C -0.7 °C 996.5 hPa NW 17.7 km/h 56.3 km/h 88 % 0 mm 0 W/m2
21:55 1.1 °C -0.7 °C 996.8 hPa WSW 17.7 km/h 56.3 km/h 88 % 0 mm 0 W/m2
22:00 1.1 °C -0.7 °C 996.8 hPa West 16.1 km/h 16.1 km/h 88 % 0 mm 0 W/m2
22:05 1 °C -0.8 °C 996.8 hPa West 14.5 km/h 56.3 km/h 88 % 0 mm 0 W/m2
22:10 1 °C -0.8 °C 996.8 hPa WSW 14.5 km/h 56.3 km/h 88 % 0 mm 0 W/m2
22:15 1 °C -0.8 °C 996.8 hPa WNW 14.5 km/h 56.3 km/h 88 % 0 mm 0 W/m2
22:25 0.9 °C -0.9 °C 996.8 hPa WNW 12.9 km/h 56.3 km/h 88 % 0 mm 0 W/m2
22:30 0.9 °C -0.9 °C 997.2 hPa NW 14.5 km/h 56.3 km/h 88 % 0 mm 0 W/m2
22:35 0.9 °C -0.8 °C 997.2 hPa West 16.1 km/h 56.3 km/h 88 % 0 mm 0 W/m2
22:40 0.9 °C -1.1 °C 997.2 hPa West 14.5 km/h 14.5 km/h 87 % 0 mm 0 W/m2
22:45 0.9 °C -1.1 °C 997.2 hPa WNW 12.9 km/h 56.3 km/h 87 % 0 mm 0 W/m2
22:50 0.8 °C -1.1 °C 997.2 hPa WNW 12.9 km/h 12.9 km/h 87 % 0 mm 0 W/m2
23:00 0.8 °C -1.1 °C 997.2 hPa NNW 11.3 km/h 56.3 km/h 87 % 0 mm 0 W/m2
23:05 0.9 °C -1 °C 997.5 hPa WNW 12.9 km/h 56.3 km/h 87 % 0 mm 0 W/m2
23:10 1 °C -0.9 °C 997.5 hPa West 14.5 km/h 56.3 km/h 87 % 0 mm 0 W/m2
23:15 1.1 °C -0.8 °C 997.5 hPa WNW 16.1 km/h 56.3 km/h 87 % 0 mm 0 W/m2
23:20 1.2 °C -0.6 °C 997.5 hPa West 17.7 km/h 56.3 km/h 88 % 0 mm 0 W/m2
23:25 1.3 °C -0.4 °C 997.5 hPa NW 19.3 km/h 56.3 km/h 88 % 0 mm 0 W/m2
23:30 1.4 °C -0.4 °C 997.9 hPa WNW 17.7 km/h 17.7 km/h 88 % 0 mm 0 W/m2
23:39 1.4 °C -0.4 °C 997.9 hPa WNW 16.1 km/h 56.3 km/h 88 % 0 mm 0 W/m2
23:45 1.4 °C -0.4 °C 998.2 hPa WNW 16.1 km/h 56.3 km/h 88 % 0 mm 0 W/m2
23:50 1.3 °C -0.4 °C 998.5 hPa NW 16.1 km/h 16.1 km/h 88 % 0 mm 0 W/m2
23:55 1.3 °C -0.5 °C 998.5 hPa WNW 16.1 km/h 56.3 km/h 88 % 0 mm 0 W/m2
Delerius-Weather
Compliments of Weather Underground - 2 mb

Data updates at regular intervals.